Time,TemperatureF,DewpointF,PressureIn,WindDirection,WindDirectionDegrees,WindSpeedMPH,WindSpeedGustMPH,Humidity,HourlyPrecipIn,Conditions,Clouds,dailyrainin,SoftwareType,DateUTC
2013-08-24 00:08:00,62.8,56.0,30.14,SE,137,1.0,-999.0,78,-99.99,,,0.00,weatherlink.com 1.10,2013-08-24 04:08:00,
2013-08-24 00:23:00,62.4,56.0,30.14,SE,143,1.0,-999.0,79,-99.99,,,0.00,weatherlink.com 1.10,2013-08-24 04:23:00,
2013-08-24 00:38:00,62.4,56.0,30.14,South,184,1.0,-999.0,79,-99.99,,,0.00,weatherlink.com 1.10,2013-08-24 04:38:00,
2013-08-24 00:53:00,62.4,56.0,30.14,South,179,0.0,-999.0,79,-99.99,,,0.00,weatherlink.com 1.10,2013-08-24 04:53:00,
2013-08-24 01:08:00,62.5,56.0,30.14,SE,146,0.0,-999.0,79,-99.99,,,0.00,weatherlink.com 1.10,2013-08-24 05:08:00,
2013-08-24 01:23:00,62.8,57.0,30.14,SSE,153,1.0,-999.0,80,-99.99,,,0.00,weatherlink.com 1.10,2013-08-24 05:23:00,
2013-08-24 01:38:00,62.9,56.0,30.14,SSE,156,3.0,-999.0,79,-99.99,,,0.00,weatherlink.com 1.10,2013-08-24 05:38:00,
2013-08-24 01:53:00,63.1,56.0,30.14,South,182,0.0,-999.0,78,-99.99,,,0.00,weatherlink.com 1.10,2013-08-24 05:53:00,
2013-08-24 02:08:00,63.4,56.0,30.15,South,182,1.0,-999.0,78,-99.99,,,0.00,weatherlink.com 1.10,2013-08-24 06:08:00,
2013-08-24 02:23:00,63.5,57.0,30.15,South,188,1.0,-999.0,79,-99.99,,,0.00,weatherlink.com 1.10,2013-08-24 06:23:00,
2013-08-24 02:38:00,63.5,57.0,30.15,SSW,192,1.0,-999.0,80,-99.99,,,0.00,weatherlink.com 1.10,2013-08-24 06:38:00,
2013-08-24 02:53:00,63.7,57.0,30.15,South,190,1.0,-999.0,80,-99.99,,,0.00,weatherlink.com 1.10,2013-08-24 06:53:00,
2013-08-24 03:08:00,63.8,57.0,30.15,SSW,202,1.0,-999.0,79,-99.99,,,0.00,weatherlink.com 1.10,2013-08-24 07:08:00,
2013-08-24 03:23:00,63.5,57.0,30.16,SSW,200,2.0,-999.0,80,-99.99,,,0.00,weatherlink.com 1.10,2013-08-24 07:23:00,
2013-08-24 03:38:00,63.2,57.0,30.16,SSW,198,2.0,-999.0,80,-99.99,,,0.00,weatherlink.com 1.10,2013-08-24 07:38:00,
2013-08-24 03:53:00,63.0,56.0,30.16,SW,214,3.0,-999.0,79,-99.99,,,0.00,weatherlink.com 1.10,2013-08-24 07:53:00,
2013-08-24 04:08:00,63.0,56.0,30.16,SW,214,2.0,-999.0,79,-99.99,,,0.00,weatherlink.com 1.10,2013-08-24 08:08:00,
2013-08-24 04:23:00,62.9,57.0,30.16,SSW,202,1.0,-999.0,80,-99.99,,,0.00,weatherlink.com 1.10,2013-08-24 08:23:00,
2013-08-24 04:38:00,62.7,56.0,30.16,SW,215,0.0,-999.0,80,-99.99,,,0.00,weatherlink.com 1.10,2013-08-24 08:38:00,
2013-08-24 04:53:00,62.9,56.0,30.16,South,183,1.0,-999.0,79,-99.99,,,0.00,weatherlink.com 1.10,2013-08-24 08:53:00,
2013-08-24 05:08:00,63.3,56.0,30.16,SSW,195,1.0,-999.0,78,-99.99,,,0.00,weatherlink.com 1.10,2013-08-24 09:08:00,
2013-08-24 05:23:00,63.5,56.0,30.16,SSW,208,1.0,-999.0,77,-99.99,,,0.00,weatherlink.com 1.10,2013-08-24 09:23:00,
2013-08-24 05:38:00,63.8,56.0,30.16,SSW,196,2.0,-999.0,75,-99.99,,,0.00,weatherlink.com 1.10,2013-08-24 09:38:00,
2013-08-24 05:53:00,64.1,56.0,30.17,SSW,197,3.0,-999.0,74,-99.99,,,0.00,weatherlink.com 1.10,2013-08-24 09:53:00,
2013-08-24 06:08:00,64.3,56.0,30.17,SSW,192,1.0,-999.0,74,-99.99,,,0.00,weatherlink.com 1.10,2013-08-24 10:08:00,
2013-08-24 06:23:00,63.9,56.0,30.17,SSW,192,2.0,-999.0,75,-99.99,,,0.00,weatherlink.com 1.10,2013-08-24 10:23:00,
2013-08-24 06:38:00,63.6,56.0,30.18,SSW,207,1.0,-999.0,76,-99.99,,,0.00,weatherlink.com 1.10,2013-08-24 10:38:00,
2013-08-24 06:53:00,63.3,56.0,30.18,SSW,210,2.0,-999.0,78,-99.99,,,0.00,weatherlink.com 1.10,2013-08-24 10:53:00,
2013-08-24 07:08:00,63.1,56.0,30.18,SSW,207,2.0,-999.0,78,-99.99,,,0.00,weatherlink.com 1.10,2013-08-24 11:08:00,
2013-08-24 07:23:00,63.1,56.0,30.18,SSW,199,0.0,-999.0,78,-99.99,,,0.00,weatherlink.com 1.10,2013-08-24 11:23:00,
2013-08-24 07:38:00,63.2,56.0,30.18,South,173,3.0,-999.0,78,-99.99,,,0.00,weatherlink.com 1.10,2013-08-24 11:38:00,
2013-08-24 07:53:00,63.4,56.0,30.18,South,189,1.0,-999.0,78,-99.99,,,0.00,weatherlink.com 1.10,2013-08-24 11:53:00,
2013-08-24 08:08:00,63.7,56.0,30.19,SSE,153,0.0,-999.0,77,-99.99,,,0.00,weatherlink.com 1.10,2013-08-24 12:08:00,
2013-08-24 08:23:00,64.2,57.0,30.19,SSW,212,0.0,-999.0,77,-99.99,,,0.00,weatherlink.com 1.10,2013-08-24 12:23:00,
2013-08-24 08:38:00,64.9,57.0,30.19,SW,230,0.0,-999.0,76,-99.99,,,0.00,weatherlink.com 1.10,2013-08-24 12:38:00,
2013-08-24 08:53:00,65.6,57.0,30.18,SSW,205,0.0,-999.0,74,-99.99,,,0.00,weatherlink.com 1.10,2013-08-24 12:53:00,
2013-08-24 09:08:00,66.5,58.0,30.19,SSW,196,1.0,-999.0,73,-99.99,,,0.00,weatherlink.com 1.10,2013-08-24 13:08:00,
2013-08-24 09:23:00,67.4,58.0,30.19,SSW,209,0.0,-999.0,71,-99.99,,,0.00,weatherlink.com 1.10,2013-08-24 13:23:00,
2013-08-24 09:38:00,68.5,57.0,30.18,SW,219,2.0,-999.0,68,-99.99,,,0.00,weatherlink.com 1.10,2013-08-24 13:38:00,
2013-08-24 09:53:00,69.7,58.0,30.18,SSW,205,3.0,-999.0,66,-99.99,,,0.00,weatherlink.com 1.10,2013-08-24 13:53:00,
2013-08-24 10:08:00,70.7,58.0,30.18,SW,227,1.0,-999.0,65,-99.99,,,0.00,weatherlink.com 1.10,2013-08-24 14:08:00,
2013-08-24 10:23:00,71.3,58.0,30.18,South,180,1.0,-999.0,63,-99.99,,,0.00,weatherlink.com 1.10,2013-08-24 14:23:00,
2013-08-24 10:38:00,71.9,59.0,30.17,SSW,193,1.0,-999.0,63,-99.99,,,0.00,weatherlink.com 1.10,2013-08-24 14:38:00,
2013-08-24 10:53:00,72.9,59.0,30.17,South,179,2.0,-999.0,61,-99.99,,,0.00,weatherlink.com 1.10,2013-08-24 14:53:00,
2013-08-24 11:08:00,74.0,60.0,30.17,SSW,204,0.0,-999.0,61,-99.99,,,0.00,weatherlink.com 1.10,2013-08-24 15:08:00,
2013-08-24 11:23:00,75.1,60.0,30.17,South,191,0.0,-999.0,60,-99.99,,,0.00,weatherlink.com 1.10,2013-08-24 15:23:00,
2013-08-24 11:38:00,75.7,60.0,30.17,South,185,0.0,-999.0,59,-99.99,,,0.00,weatherlink.com 1.10,2013-08-24 15:38:00,
2013-08-24 11:53:00,77.2,62.0,30.17,ENE,78,0.0,-999.0,60,-99.99,,,0.00,weatherlink.com 1.10,2013-08-24 15:53:00,
2013-08-24 12:08:00,77.5,61.0,30.17,South,179,2.0,-999.0,57,-99.99,,,0.00,weatherlink.com 1.10,2013-08-24 16:08:00,
2013-08-24 12:23:00,77.6,61.0,30.18,SW,221,2.0,-999.0,56,-99.99,,,0.00,weatherlink.com 1.10,2013-08-24 16:23:00,
2013-08-24 12:38:00,78.5,61.0,30.16,South,190,1.0,-999.0,56,-99.99,,,0.00,weatherlink.com 1.10,2013-08-24 16:38:00,
2013-08-24 12:53:00,79.2,62.0,30.16,SSW,206,0.0,-999.0,56,-99.99,,,0.00,weatherlink.com 1.10,2013-08-24 16:53:00,
2013-08-24 13:08:00,79.5,61.0,30.16,SSW,207,1.0,-999.0,53,-99.99,,,0.00,weatherlink.com 1.10,2013-08-24 17:08:00,
2013-08-24 13:23:00,79.7,61.0,30.15,WSW,252,1.0,-999.0,53,-99.99,,,0.00,weatherlink.com 1.10,2013-08-24 17:23:00,
2013-08-24 13:38:00,80.3,62.0,30.15,SSW,207,7.0,-999.0,53,-99.99,,,0.00,weatherlink.com 1.10,2013-08-24 17:38:00,
2013-08-24 13:53:00,80.2,60.0,30.15,South,173,4.0,-999.0,51,-99.99,,,0.00,weatherlink.com 1.10,2013-08-24 17:53:00,
2013-08-24 14:08:00,80.3,60.0,30.14,SSW,192,1.0,-999.0,50,-99.99,,,0.00,weatherlink.com 1.10,2013-08-24 18:08:00,
2013-08-24 14:23:00,79.3,62.0,30.14,NE,51,1.0,-999.0,55,-99.99,,,0.00,weatherlink.com 1.10,2013-08-24 18:23:00,
2013-08-24 14:38:00,79.2,61.0,30.14,SW,223,0.0,-999.0,54,-99.99,,,0.00,weatherlink.com 1.10,2013-08-24 18:38:00,
2013-08-24 14:53:00,79.6,61.0,30.14,SW,214,3.0,-999.0,54,-99.99,,,0.00,weatherlink.com 1.10,2013-08-24 18:53:00,
2013-08-24 15:08:00,79.4,62.0,30.14,SSE,164,0.0,-999.0,55,-99.99,,,0.00,weatherlink.com 1.10,2013-08-24 19:08:00,
2013-08-24 15:23:00,79.7,62.0,30.14,SSW,201,1.0,-999.0,54,-99.99,,,0.00,weatherlink.com 1.10,2013-08-24 19:23:00,
2013-08-24 15:38:00,79.6,61.0,30.13,South,186,1.0,-999.0,54,-99.99,,,0.00,weatherlink.com 1.10,2013-08-24 19:38:00,
2013-08-24 15:53:00,79.0,61.0,30.13,WNW,296,1.0,-999.0,54,-99.99,,,0.00,weatherlink.com 1.10,2013-08-24 19:53:00,
2013-08-24 16:08:00,78.7,62.0,30.13,SSW,211,0.0,-999.0,56,-99.99,,,0.00,weatherlink.com 1.10,2013-08-24 20:08:00,
2013-08-24 16:23:00,78.5,62.0,30.12,ESE,121,0.0,-999.0,57,-99.99,,,0.00,weatherlink.com 1.10,2013-08-24 20:23:00,
2013-08-24 16:38:00,78.7,62.0,30.11,SW,216,1.0,-999.0,57,-99.99,,,0.00,weatherlink.com 1.10,2013-08-24 20:38:00,
2013-08-24 16:53:00,78.9,61.0,30.11,SSW,206,0.0,-999.0,54,-99.99,,,0.00,weatherlink.com 1.10,2013-08-24 20:53:00,
2013-08-24 17:08:00,79.0,61.0,30.11,SW,217,5.0,-999.0,55,-99.99,,,0.00,weatherlink.com 1.10,2013-08-24 21:08:00,
2013-08-24 17:23:00,78.7,61.0,30.11,SSW,210,2.0,-999.0,54,-99.99,,,0.00,weatherlink.com 1.10,2013-08-24 21:23:00,
2013-08-24 17:38:00,79.0,60.0,30.10,SW,215,5.0,-999.0,53,-99.99,,,0.00,weatherlink.com 1.10,2013-08-24 21:38:00,
2013-08-24 17:53:00,78.3,60.0,30.10,SSW,194,4.0,-999.0,53,-99.99,,,0.00,weatherlink.com 1.10,2013-08-24 21:53:00,
2013-08-24 18:08:00,77.9,60.0,30.09,SE,142,0.0,-999.0,54,-99.99,,,0.00,weatherlink.com 1.10,2013-08-24 22:08:00,
2013-08-24 18:23:00,77.6,60.0,30.09,East,87,0.0,-999.0,55,-99.99,,,0.00,weatherlink.com 1.10,2013-08-24 22:23:00,
2013-08-24 18:38:00,77.4,60.0,30.10,SSW,209,2.0,-999.0,55,-99.99,,,0.00,weatherlink.com 1.10,2013-08-24 22:38:00,
2013-08-24 18:53:00,77.3,60.0,30.09,SSW,198,2.0,-999.0,56,-99.99,,,0.00,weatherlink.com 1.10,2013-08-24 22:53:00,
2013-08-24 19:08:00,77.3,60.0,30.08,SSW,213,2.0,-999.0,56,-99.99,,,0.00,weatherlink.com 1.10,2013-08-24 23:08:00,
2013-08-24 19:23:00,77.2,61.0,30.08,SE,129,0.0,-999.0,57,-99.99,,,0.00,weatherlink.com 1.10,2013-08-24 23:23:00,
2013-08-24 19:38:00,76.9,60.0,30.07,SSW,202,3.0,-999.0,57,-99.99,,,0.00,weatherlink.com 1.10,2013-08-24 23:38:00,
2013-08-24 19:53:00,76.3,60.0,30.07,SSW,200,4.0,-999.0,58,-99.99,,,0.00,weatherlink.com 1.10,2013-08-24 23:53:00,
2013-08-24 20:08:00,75.8,59.0,30.07,SW,219,4.0,-999.0,57,-99.99,,,0.00,weatherlink.com 1.10,2013-08-25 00:08:00,
2013-08-24 20:23:00,75.3,60.0,30.07,SSW,200,1.0,-999.0,59,-99.99,,,0.00,weatherlink.com 1.10,2013-08-25 00:23:00,
2013-08-24 20:38:00,74.7,60.0,30.07,SSW,192,3.0,-999.0,61,-99.99,,,0.00,weatherlink.com 1.10,2013-08-25 00:38:00,
2013-08-24 20:53:00,74.0,61.0,30.06,SSW,209,0.0,-999.0,63,-99.99,,,0.00,weatherlink.com 1.10,2013-08-25 00:53:00,
2013-08-24 21:08:00,73.3,60.0,30.07,ESE,102,3.0,-999.0,63,-99.99,,,0.00,weatherlink.com 1.10,2013-08-25 01:08:00,
2013-08-24 21:23:00,72.8,60.0,30.07,SW,221,2.0,-999.0,64,-99.99,,,0.00,weatherlink.com 1.10,2013-08-25 01:23:00,
2013-08-24 21:38:00,72.1,60.0,30.06,SW,232,3.0,-999.0,66,-99.99,,,0.00,weatherlink.com 1.10,2013-08-25 01:38:00,
2013-08-24 21:53:00,71.5,60.0,30.05,SW,230,2.0,-999.0,67,-99.99,,,0.00,weatherlink.com 1.10,2013-08-25 01:53:00,
2013-08-24 22:08:00,71.0,60.0,30.05,SSW,197,1.0,-999.0,69,-99.99,,,0.00,weatherlink.com 1.10,2013-08-25 02:08:00,
2013-08-24 22:23:00,70.6,60.0,30.04,SSW,211,0.0,-999.0,70,-99.99,,,0.00,weatherlink.com 1.10,2013-08-25 02:23:00,
2013-08-24 22:38:00,70.3,60.0,30.04,SSW,195,3.0,-999.0,70,-99.99,,,0.00,weatherlink.com 1.10,2013-08-25 02:38:00,
2013-08-24 22:53:00,70.0,59.0,30.03,SW,233,4.0,-999.0,69,-99.99,,,0.00,weatherlink.com 1.10,2013-08-25 02:53:00,
2013-08-24 23:08:00,69.8,59.0,30.03,SW,219,4.0,-999.0,69,-99.99,,,0.00,weatherlink.com 1.10,2013-08-25 03:08:00,
2013-08-24 23:23:00,69.5,59.0,30.03,SSE,163,4.0,-999.0,69,-99.99,,,0.00,weatherlink.com 1.10,2013-08-25 03:23:00,
2013-08-24 23:38:00,69.2,59.0,30.03,SSW,199,4.0,-999.0,70,-99.99,,,0.00,weatherlink.com 1.10,2013-08-25 03:38:00,
2013-08-24 23:53:00,69.1,59.0,30.03,SW,224,5.0,-999.0,69,-99.99,,,0.00,weatherlink.com 1.10,2013-08-25 03:53:00,